[[{"header":{"parameterUnit":"m.s-1","parameterCategory":1,"la1":30.2991,"la2":30.254,"lo1":-89.0895,"lo2":-89.0444,"dy":0.0017,"dx":0.0017,"nx":28,"ny":28,"refTime":"2025-08-16T09:00:00:Z","depth":0,"parameterNumber":2,"parameterNumberName":"U-component_of_WINDS"},"data":[0,0,0,0,0,0,0,0,0,0,0,0,0,0,0,0,0,0,0,0,0,0,0,0,0,0,0,0,0,0,0,0,0,0,0,0,0,0,0,0,0,0,0,0,0,0,0,0,0,0,0,0,0,0,0,0,0,0,3.6288,3.6292,0,3.6614,3.6618,3.6621,3.6774,3.6774,3.6774,3.6774,3.7078,3.7086,3.7094,0,0,0,0,0,0,0,0,0,0,0,0,0,3.5768,3.5777,3.6288,3.6292,3.6296,3.6613,3.6618,3.6622,3.6774,3.6774,3.6774,3.6774,3.7075,3.7085,3.7095,0,0,0,0,0,0,0,0,0,0,0,0,0,3.6033,3.578,3.6287,3.6411,3.6426,3.6613,3.6618,3.6623,3.6774,3.6774,3.6774,3.6774,3.7072,3.7084,3.7096,3.7176,0,0,3.7134,3.7139,0,0,0,0,0,0,0,0,3.6018,3.6052,3.6389,3.6403,3.6419,3.6654,3.6546,3.6808,3.6774,3.6641,3.6774,3.6774,3.6935,3.6959,3.7019,3.719,3.7203,3.7135,3.7143,3.7148,3.7151,0,0,0,0,0,0,0,3.5999,3.6038,3.6416,3.6393,3.6412,3.644,3.6478,3.6596,3.6784,3.6652,3.6664,3.6702,3.6943,3.7007,3.7027,3.7208,3.7135,3.7146,3.7153,3.7158,3.746,3.746,0,0,0,0,0,0,3.5965,3.6022,3.6406,3.6426,3.6215,3.645,3.6492,3.6578,3.6783,3.6815,3.6702,3.6708,3.6986,3.7013,3.7039,3.7147,3.7148,3.7159,3.7166,3.7459,3.746,3.7461,0,0,0,0,0,0,3.5953,3.5998,3.6393,3.6228,3.6281,3.646,3.6555,3.6585,3.6649,3.6822,3.6853,3.6735,3.6987,3.7021,3.7143,3.716,3.7165,3.7176,3.7458,3.7459,3.746,3.7363,0,0,0,0,0,0,3.5938,3.5993,3.6032,3.6228,3.6289,3.6499,3.6556,3.6591,3.6674,3.6685,3.6861,3.6889,3.699,3.7124,3.7155,3.7177,3.7186,3.7458,3.7459,3.746,3.7365,3.736,3.7356,0,0,0,0,0,3.5919,3.5984,3.6033,3.6078,3.6343,3.65,3.6534,3.6657,3.6674,3.6711,3.6821,3.6884,3.7153,3.7135,3.7171,3.7197,3.7457,3.7458,3.746,3.7367,3.7361,3.7356,0,0,0,0,0,0,3.5773,3.6012,3.6069,3.6202,3.6331,3.6526,3.6576,3.6646,3.6764,3.6769,3.6906,3.6944,3.7053,3.7137,3.7113,3.7285,3.731,3.7319,3.7227,3.7223,3.7218,3.7196,3.7196,0,0,0,0,0,3.5759,3.5877,3.6075,3.6172,3.6236,3.6394,3.6467,3.6552,3.6686,3.6739,3.6858,3.6978,3.7091,3.7161,3.7273,3.7378,3.7416,3.7413,3.7408,3.7403,3.7409,3.747,3.7471,3.7465,3.7465,3.7465,0,0,3.5726,3.5871,3.5935,3.6148,3.6258,3.6368,3.6439,3.6552,3.6633,3.6752,3.6879,3.6969,3.7112,3.7226,3.7282,3.7299,3.742,3.7405,3.74,3.7409,3.7472,3.7472,3.7472,3.7466,3.7466,3.7466,0,0,3.5724,3.5848,3.5945,3.6056,3.6226,3.6331,3.6353,3.6539,3.6608,3.6738,3.6831,3.6923,3.7114,3.7213,3.7288,3.7325,3.7386,3.7357,3.7332,3.739,3.7391,3.7392,3.7405,3.7408,3.7362,3.7361,3.7361,0,3.5659,3.5842,3.5982,3.6094,3.6182,3.6306,3.6401,3.6497,3.6689,3.6743,3.6762,3.7006,3.711,3.725,3.726,3.7316,3.7342,3.7338,3.7381,3.7384,3.7386,3.74,3.7405,3.7357,3.7357,3.7358,3.7358,0,3.5753,3.5876,3.5932,3.6129,3.6222,3.6323,3.6471,3.6548,3.6623,3.6723,3.6852,3.6983,3.7125,3.7163,3.7233,3.7312,3.7318,3.7356,3.7385,3.738,3.7396,3.7402,3.7351,3.7352,3.7353,3.7355,0,0,3.5667,3.5946,3.5963,3.6055,3.6252,3.6345,3.6448,3.6598,3.666,3.6787,3.6874,3.7034,3.7073,3.7158,3.7239,3.729,3.7312,3.7323,3.7329,3.7317,3.7406,3.7376,3.7381,3.7354,3.7356,3.7357,3.7394,0,3.5693,3.59,3.603,3.6179,3.6293,3.6412,3.6502,3.6627,3.6723,3.6826,3.6928,3.704,3.7083,3.7135,3.7191,3.7298,3.7332,3.7297,3.7431,3.7434,3.7393,3.7389,3.7358,3.7387,3.7401,3.7402,3.7403,0,3.5752,3.589,3.6054,3.6242,3.6294,3.6374,3.6522,3.6621,3.6762,3.6828,3.6926,3.7011,3.7117,3.7137,3.7283,3.7257,3.7318,3.7378,3.7382,3.7399,3.7418,3.7406,3.7399,3.7403,3.7414,3.7413,3.7412,0,3.5674,3.5899,3.6028,3.6101,3.6323,3.6376,3.6468,3.6612,3.6694,3.6818,3.6872,3.7003,3.7074,3.7171,3.7286,3.729,3.742,3.7449,3.7473,3.747,3.7495,3.7492,3.7498,3.7533,3.7533,3.7533,3.7533,0,3.569,3.5785,3.5997,3.6076,3.6184,3.6328,3.6428,3.6528,3.6656,3.6749,3.6855,3.6938,3.7086,3.7185,3.7274,3.7382,3.7412,3.7464,3.7487,3.7456,3.7449,3.7498,3.7499,3.7534,3.7534,3.7534,3.7533,0,3.5622,3.5769,3.5917,3.6118,3.617,3.6241,3.6408,3.6483,3.6587,3.6704,3.6739,3.6897,3.7021,3.7146,3.7308,3.7368,3.7472,3.7503,3.7428,3.7441,3.7459,3.7455,3.7497,3.7509,3.7534,3.7533,3.7533,0,3.5623,3.5702,3.5914,3.5991,3.6085,3.6204,3.6292,3.6434,3.6518,3.6688,3.6742,3.6875,3.699,3.7178,3.7302,3.7427,3.7461,3.7467,3.748,3.7447,3.7462,3.7457,3.7464,3.7462,3.7461,3.746,3.746,0,3.561,3.568,3.5808,3.5962,3.6066,3.619,3.6316,3.637,3.6535,3.6622,3.6756,3.6845,3.7017,3.7145,3.7286,3.7371,3.744,3.7455,3.7468,3.7436,3.739,3.7416,3.7416,3.7453,3.7454,3.7454,3.7455,3.7455,3.5577,3.5653,3.5817,3.5955,3.6069,3.6186,3.627,3.6387,3.6504,3.6663,3.6736,3.6868,3.7006,3.7204,3.7288,3.7388,3.7407,3.7424,3.7428,3.7431,3.7424,3.7375,3.7413,3.7413,3.7413,3.7414,3.7414,0,3.5569,3.5683,3.5809,3.5991,3.6097,3.6166,3.6309,3.6391,3.6511,3.6639,3.6753,3.6903,3.703,3.7166,3.7298,3.7352,3.7387,3.7381,3.7379,3.7397,3.7399,3.7376,3.7351,3.7351,3.7351,3.7351,3.7351,3.7351,3.5578,3.5712,3.5801,3.5989,3.6098,3.6239,3.6315,3.6421,3.6525,3.6694,3.6804,3.6895,3.7024,3.7168,3.7284,3.732,3.7363,3.7349,3.7393,3.7392,3.7397,3.7401,3.738,3.7357,3.7357,3.7384,3.7384,3.7384]},{"header":{"parameterUnit":"m.s-1","parameterCategory":1,"la1":30.2991,"la2":30.254,"lo1":-89.0895,"lo2":-89.0444,"dy":0.0017,"dx":0.0017,"nx":28,"ny":28,"refTime":"2025-08-16T09:00:00:Z","depth":0,"parameterNumber":3,"parameterNumberName":"V-component_of_WINDS"},"data":[0,0,0,0,0,0,0,0,0,0,0,0,0,0,0,0,0,0,0,0,0,0,0,0,0,0,0,0,0,0,0,0,0,0,0,0,0,0,0,0,0,0,0,0,0,0,0,0,0,0,0,0,0,0,0,0,0,0,1.2132,1.2132,0,1.2085,1.2085,1.2084,1.2141,1.2143,1.2146,1.2148,1.2081,1.2077,1.2073,0,0,0,0,0,0,0,0,0,0,0,0,0,1.2263,1.226,1.2132,1.2132,1.2131,1.2085,1.2085,1.2084,1.2141,1.2144,1.2146,1.2149,1.2082,1.2077,1.2073,0,0,0,0,0,0,0,0,0,0,0,0,0,1.221,1.2259,1.2133,1.2155,1.2156,1.2086,1.2085,1.2084,1.214,1.2144,1.2147,1.215,1.2083,1.2078,1.2072,1.1972,0,0,1.2055,1.2052,0,0,0,0,0,0,0,0,1.2213,1.2205,1.2152,1.2153,1.2155,1.2123,1.2106,1.2046,1.214,1.2146,1.2148,1.2152,1.2091,1.2085,1.2068,1.1969,1.1966,1.2054,1.2051,1.2048,1.2047,0,0,0,0,0,0,0,1.2216,1.2207,1.2113,1.2151,1.2153,1.2164,1.216,1.2095,1.21,1.2145,1.215,1.2144,1.2092,1.2073,1.2067,1.1965,1.2054,1.2049,1.2046,1.2044,1.1792,1.1789,0,0,0,0,0,0,1.2219,1.221,1.2115,1.2112,1.2193,1.2159,1.2155,1.2129,1.2101,1.21,1.2142,1.2147,1.2082,1.2074,1.2065,1.1952,1.2048,1.2043,1.204,1.1795,1.1791,1.1788,0,0,0,0,0,0,1.2222,1.221,1.2117,1.2162,1.2151,1.2154,1.2125,1.2127,1.2108,1.2098,1.2098,1.2122,1.2084,1.2073,1.1998,1.195,1.204,1.2035,1.1799,1.1794,1.179,1.1721,0,0,0,0,0,0,1.2225,1.2211,1.2173,1.2161,1.2149,1.2053,1.2122,1.2124,1.2101,1.2108,1.208,1.2078,1.2086,1.2007,1.1993,1.1944,1.2031,1.1803,1.1797,1.1791,1.1727,1.1714,1.1703,0,0,0,0,0,1.223,1.2149,1.2171,1.2159,1.2103,1.205,1.2042,1.2057,1.2096,1.2059,1.2055,1.2079,1.1959,1.1999,1.1983,1.1932,1.1806,1.1799,1.1792,1.1732,1.1717,1.1703,0,0,0,0,0,0,1.2144,1.2147,1.2171,1.2085,1.2069,1.206,1.2011,1.2038,1.2004,1.201,1.2026,1.202,1.1942,1.193,1.1974,1.1839,1.1889,1.1878,1.1849,1.1834,1.1822,1.1825,1.2026,0,0,0,0,0,1.2118,1.2079,1.2082,1.2005,1.1997,1.2007,1.1983,1.1999,1.1978,1.1969,1.1958,1.1934,1.1893,1.1862,1.1822,1.1728,1.1725,1.1686,1.1674,1.1664,1.1653,1.1611,1.1595,1.1764,1.1764,1.1764,0,0,1.2057,1.2055,1.2027,1.1989,1.1977,1.1935,1.1998,1.1948,1.1917,1.1959,1.1891,1.1884,1.1858,1.1777,1.1739,1.1763,1.1608,1.1655,1.1647,1.1641,1.1602,1.1586,1.1571,1.1759,1.176,1.176,0,0,1.1927,1.192,1.1861,1.1852,1.1839,1.1848,1.1835,1.1825,1.1825,1.176,1.1794,1.1756,1.168,1.1664,1.1645,1.1527,1.155,1.1513,1.1447,1.1406,1.1392,1.1381,1.1342,1.1327,1.1503,1.1503,1.1503,0,1.1851,1.1794,1.1824,1.1777,1.1761,1.181,1.175,1.1738,1.1708,1.1695,1.1726,1.1642,1.1627,1.1546,1.1519,1.1501,1.1487,1.1513,1.1393,1.1381,1.1371,1.1334,1.1319,1.1499,1.1499,1.15,1.15,0,1.1705,1.1666,1.1618,1.1602,1.1581,1.1526,1.1548,1.1523,1.1544,1.1551,1.1488,1.1475,1.1438,1.142,1.1434,1.1344,1.136,1.1391,1.1441,1.135,1.1316,1.1302,1.1493,1.1494,1.1496,1.1497,0,0,1.1506,1.1521,1.1502,1.15,1.1496,1.1464,1.1416,1.1389,1.1369,1.135,1.131,1.1254,1.1288,1.1267,1.1282,1.1246,1.116,1.1282,1.1282,1.1262,1.1065,1.1041,1.1024,1.1178,1.1176,1.1173,1.1068,0,1.138,1.1302,1.1335,1.1253,1.122,1.1274,1.1232,1.1224,1.1233,1.1204,1.1211,1.1173,1.1217,1.1207,1.1174,1.1177,1.112,1.1185,1.1139,1.1137,1.1143,1.1005,1.0977,1.0878,1.1054,1.1052,1.105,0,1.1217,1.1206,1.1124,1.1138,1.1125,1.1087,1.1072,1.1044,1.1039,1.1048,1.1034,1.1061,1.1014,1.107,1.1007,1.1051,1.1036,1.1036,1.1033,1.1026,1.1086,1.0996,1.0845,1.0831,1.1029,1.103,1.1032,0,1.1086,1.1049,1.0998,1.0994,1.1007,1.0981,1.0984,1.0984,1.097,1.0955,1.0947,1.0923,1.091,1.0891,1.0912,1.095,1.0848,1.0903,1.0854,1.0854,1.0825,1.0826,1.0671,1.0817,1.0817,1.0818,1.0818,0,1.0939,1.0887,1.0942,1.0909,1.0855,1.0895,1.0839,1.0848,1.085,1.0821,1.0864,1.0834,1.0865,1.0838,1.0854,1.0804,1.0796,1.0802,1.0806,1.0797,1.0797,1.0784,1.0792,1.0814,1.0814,1.0815,1.0816,0,1.0779,1.0813,1.0762,1.0786,1.0791,1.075,1.0769,1.074,1.0758,1.0721,1.0714,1.0739,1.0712,1.0734,1.0703,1.0715,1.0649,1.0663,1.0653,1.0656,1.0607,1.0612,1.0437,1.0418,1.0576,1.0574,1.0573,0,1.0682,1.0646,1.0671,1.066,1.0664,1.0641,1.0632,1.0673,1.066,1.0661,1.0633,1.0613,1.0597,1.0552,1.0564,1.0544,1.0558,1.05,1.0554,1.0551,1.056,1.0562,1.0561,1.0486,1.0484,1.0482,1.0481,0,1.0508,1.0532,1.0519,1.0516,1.0506,1.0503,1.0502,1.0489,1.0533,1.0516,1.0495,1.0485,1.0464,1.0442,1.043,1.043,1.0463,1.0466,1.0454,1.0443,1.044,1.0445,1.0622,1.0468,1.0469,1.047,1.0471,1.0471,1.0378,1.0353,1.0371,1.0358,1.0366,1.0368,1.0347,1.0368,1.0353,1.0344,1.0369,1.0343,1.0349,1.0337,1.0336,1.0316,1.034,1.0321,1.0316,1.0311,1.0306,1.0447,1.0313,1.0313,1.0314,1.0314,1.0314,0,1.0209,1.0227,1.0216,1.0222,1.0214,1.0258,1.0263,1.0252,1.0231,1.0238,1.0228,1.0207,1.0192,1.021,1.0197,1.0178,1.0193,1.0173,1.0174,1.0175,1.0283,1.0296,1.0162,1.0162,1.0162,1.0162,1.0162,1.0162,1.0119,1.0082,1.0109,1.0078,1.0095,1.0077,1.0077,1.0081,1.0089,1.0067,1.0058,1.0074,1.0087,1.0078,1.0067,1.0073,1.0066,1.0041,1.0052,1.0151,1.0166,1.018,1.0193,1.0039,1.0039,0.9946,0.9945,0.9944]}]]